Вернуться в каталог

COSMOS 2251 DEB

АктивенLEO
NORAD 38060·DEBRIS·🇷🇺 Russia

Запущен Jun 16, 1993 с Plesetsk Cosmodrome

Loading…

Ближайшие Пролёты (ближайшие 24 часа)

TLE

СвежийSource: Space-Track

Эпоха: Sep 14, 2026, 08:29 UTC

1 38060U 93036BRS 26257.35370881  .00001124  00000-0  21057-3 0  9991
2 38060  74.0406 125.7251 0058581 163.3330 196.9782 14.64982870759999

Отслеживайте COSMOS 2251 DEB в реальном времени с AllMySat

Download on the App Store